Wind_Speed
6 6 7 7 7 7 7 7 7 6 6 7 6 6 7 7 7 7 6 5 5 5 5 5 5 6 5 5 4 4 5 6 6 6 6 6 7 6 7 7 7 7 6
7 7 7 7 7 7 8 8 8 8 8 7 7 7 7 8 8 8 7 6 6 6 6 6 7 6 6 6 6 6 6 6 7 7 7 7 7 8 8 8 8 7 7
6 7 7 7 7 7 8 7 7 8 9 8 8 8 8 8 8 8 8 8 8 7 8 8 7 7 7 7 7 7 8 7 7 8 8 8 8 9 9 9 9 9 9
7 7 7 8 9 8 8 7 7 9 9 9 9 9 9 9 9 9 9 10 9 8 8 9 8 8 8 9 9 9 9 9 9 9 8 9 10 9 9 9 9 10 10
7 7 8 8 8 8 9 8 7 8 8 9 9 9 8 8 9 9 10 10 10 9 9 9 9 9 9 10 10 10 10 10 10 10 10 10 10 10 9 9 9 10 10
7 8 8 8 8 8 9 9 7 7 8 8 8 8 8 9 10 10 10 10 10 10 10 9 10 10 11 11 11 11 11 10 11 11 11 11 11 10 10 9 10 10 10
8 9 10 10 10 10 9 8 8 8 8 8 8 9 9 9 11 11 10 10 10 10 11 11 11 11 11 12 13 13 13 12 12 12 12 12 11 11 12 11 11 11 10
9 10 11 12 12 10 10 9 9 9 9 9 9 10 10 10 11 11 11 11 12 12 12 12 12 13 13 14 14 14 14 13 13 13 13 13 13 13 13 12 12 12 12
9 10 12 12 11 10 10 10 10 10 10 10 11 11 11 11 11 13 13 13 13 13 13 14 15 15 14 15 16 15 15 15 14 14 14 14 14 14 14 14 13 13 13
11 11 12 13 12 12 11 11 12 11 10 11 12 13 14 14 14 14 14 14 14 14 15 14 15 15 15 15 15 16 16 15 15 15 16 15 15 15 15 15 15 15 14
13 12 12 12 13 12 12 12 13 13 13 13 13 14 16 16 16 16 16 16 15 15 15 16 15 15 16 16 16 16 16 16 16 16 16 17 16 16 16 16 16 16 16
14 14 14 14 14 14 14 14 14 14 14 14 15 15 16 17 17 17 18 18 17 17 17 17 18 17 17 18 18 18 18 18 17 18 17 17 17 17 17 17 16 16 16
15 15 16 16 15 15 15 16 16 16 16 16 16 16 17 18 17 18 18 19 18 19 19 19 20 20 20 20 20 20 20 19 18 18 19 18 18 18 18 18 17 17 17
16 17 17 17 16 16 17 17 17 17 17 18 18 18 18 18 18 19 19 19 20 20 20 20 21 21 22 21 21 21 20 20 20 20 20 20 20 19 19 19 18 19 19
17 18 18 18 18 17 18 20 20 19 19 19 19 19 20 20 19 19 20 20 20 21 22 22 22 22 23 23 22 22 22 21 21 22 21 21 21 21 21 20 21 21 21
19 19 19 19 19 19 19 21 21 21 20 20 21 21 21 21 21 22 21 22 22 23 23 23 23 23 23 23 23 23 23 23 23 23 23 23 23 23 23 23 23 23 23
21 21 22 22 21 21 21 21 22 22 22 22 22 22 22 22 23 23 23 23 24 24 23 24 24 25 25 25 24 25 24 24 25 25 25 25 25 25 25 25 24 24 23
23 23 24 23 23 23 23 22 22 22 22 21 21 22 23 24 24 25 26 26 26 26 26 26 26 27 27 27 26 26 26 26 27 27 27 27 27 27 27 26 26 26 25
25 26 25 24 24 23 23 23 23 23 23 22 23 24 24 25 25 27 27 28 28 28 28 27 28 28 28 28 28 28 28 28 28 28 28 29 28 28 28 28 28 28 28
27 27 26 26 25 25 25 24 24 25 25 25 25 26 26 26 27 28 28 29 29 29 29 29 29 29 29 30 30 29 29 29 30 29 30 30 30 30 30 30 30 29 29
29 28 27 27 27 26 26 26 26 26 27 27 27 27 27 28 28 29 29 30 30 30 30 30 30 30 30 30 30 30 30 29 30 30 30 31 31 31 32 32 31 31 31
30 30 29 29 29 28 28 27 28 28 28 29 28 29 29 29 30 30 31 31 31 31 31 31 31 30 30 30 31 31 31 31 30 31 31 31 31 32 33 34 33 33 33
31 31 31 30 30 30 30 30 30 30 30 30 30 30 30 30 30 31 31 31 31 31 31 31 31 31 31 31 32 32 31 32 31 31 31 31 32 32 33 33 34 34 34
31 31 31 31 31 31 31 31 31 31 30 31 31 31 32 32 32 32 31 32 32 32 32 31 31 31 31 31 32 33 33 33 32 32 32 32 33 33 33 33 34 34 34
32 32 31 31 31 31 32 32 31 31 31 32 32 32 32 33 32 33 33 32 32 33 33 32 31 32 32 32 33 34 34 34 33 33 33 33 33 33 33 33 34 34 35
33 32 32 31 32 31 31 31 31 31 31 31 31 31 32 32 32 32 33 33 33 33 33 33 33 33 33 33 33 33 34 35 35 34 34 34 34 34 33 33 33 34 34
Wind_Direction
292 288 283 287 288 291 292 284 281 277 275 272 270 263 265 266 268 280 278 284 291 283 279 283 296 306 310 311 312 316 312 305 308 312 303 300 300 303 301 298 294 291 288
308 303 291 287 285 287 288 283 280 273 267 270 271 269 265 267 269 275 275 280 281 285 280 282 291 295 296 302 298 296 307 309 304 308 298 300 298 295 297 300 295 288 285
309 304 300 304 304 295 293 291 288 278 274 274 274 275 267 265 269 274 279 280 279 287 290 289 294 294 290 292 294 293 298 304 299 299 297 297 300 301 299 295 290 285 281
311 307 305 304 302 298 298 292 288 288 278 272 274 276 273 267 269 271 278 281 279 284 286 287 289 290 287 286 290 290 294 295 294 294 294 293 298 301 301 296 287 282 280
316 312 308 306 303 301 300 297 291 289 282 279 278 278 275 272 274 274 273 274 277 278 284 284 283 287 286 286 288 290 290 290 290 293 293 294 293 296 296 292 289 282 280
312 309 310 308 310 308 305 302 298 297 292 285 286 286 282 279 282 280 279 276 275 278 282 280 281 285 287 288 287 285 288 289 288 291 292 293 295 294 291 289 290 284 280
319 318 315 311 308 305 304 304 296 292 288 285 284 283 282 281 282 284 284 281 278 278 278 278 284 286 290 290 290 286 284 286 285 288 290 290 291 293 294 290 289 286 282
328 325 325 320 313 309 305 302 293 288 287 289 290 284 278 279 281 283 283 282 281 281 283 285 287 287 289 292 291 284 281 282 281 284 286 288 288 289 292 291 290 288 285
324 323 325 324 316 308 307 304 300 292 288 289 293 289 283 285 283 284 283 282 282 284 284 287 289 287 287 290 287 286 285 285 283 283 284 284 285 285 287 287 285 285 284
323 322 324 323 317 313 309 303 300 295 291 292 291 291 289 289 288 287 281 279 279 282 284 285 289 287 284 289 289 286 286 288 288 284 279 281 283 283 283 282 282 282 281
327 322 319 319 319 316 311 306 304 300 293 292 290 288 288 289 289 288 285 281 279 279 281 283 286 287 283 286 290 290 287 288 287 288 284 279 280 283 281 280 280 279 279
326 322 320 319 315 310 308 308 305 302 297 294 291 287 286 288 290 288 285 282 280 280 281 283 284 283 283 283 284 286 284 283 283 283 283 282 282 283 281 279 278 278 277
321 321 318 317 312 307 304 306 304 301 298 294 293 289 287 286 289 289 289 286 283 282 281 280 282 283 285 286 285 282 282 280 280 280 280 280 281 282 281 278 276 277 278
316 318 318 315 312 307 302 301 303 300 296 292 290 290 288 286 288 290 290 288 285 284 284 283 282 283 284 284 284 283 285 280 278 279 279 278 277 279 279 278 277 277 277
314 316 316 313 311 307 302 298 297 298 296 292 289 288 288 288 287 289 290 289 289 287 286 285 285 284 283 283 284 282 284 281 278 277 277 277 276 276 277 278 277 276 276
315 315 313 313 309 306 303 300 298 296 294 292 289 288 287 288 288 289 291 292 291 290 289 287 286 287 286 286 284 284 285 282 280 279 277 275 274 274 275 277 277 277 275
310 310 309 308 306 304 304 303 301 298 298 294 292 290 289 288 288 289 290 291 292 292 291 289 289 288 287 287 286 283 283 284 282 280 277 274 273 273 273 274 275 276 277
306 306 306 306 304 303 303 303 302 301 299 296 294 292 290 287 287 287 287 288 289 289 289 288 287 287 287 287 286 285 282 283 283 280 277 276 276 274 273 273 274 275 276
303 303 304 302 301 300 299 298 297 298 297 295 293 292 291 288 285 286 287 287 287 288 290 288 286 284 284 284 284 284 284 282 281 280 277 276 277 275 273 274 275 275 275
303 302 301 298 298 297 297 297 297 295 293 292 292 291 290 288 286 287 287 287 287 287 288 289 287 285 284 284 283 284 284 282 282 281 279 278 276 275 274 275 275 274 274
301 300 299 297 296 296 296 296 295 294 292 291 291 290 290 289 289 289 290 288 287 287 287 288 286 284 283 283 283 284 283 283 283 282 281 279 276 275 274 274 275 274 273
300 299 297 297 296 295 295 294 294 293 292 292 292 291 290 291 290 289 289 287 286 286 286 286 286 284 283 282 283 284 284 284 283 283 283 280 277 277 276 274 274 274 273
298 297 297 296 295 294 294 294 294 293 293 293 292 291 291 291 291 290 288 287 287 288 287 286 285 285 285 284 284 284 284 284 283 283 283 282 280 278 276 275 274 274 272
297 296 296 295 294 293 294 294 294 294 292 292 292 292 292 291 290 289 288 287 287 287 286 284 284 284 284 284 284 284 284 284 283 282 282 283 281 279 277 276 276 277 276
295 295 294 294 293 293 294 294 293 293 293 292 292 293 293 293 292 290 289 289 287 286 285 283 283 283 283 284 284 284 284 284 283 283 282 281 280 279 279 278 276 276 276
292 292 293 293 293 293 294 293 293 292 292 292 292 292 292 293 292 291 289 289 288 287 286 284 284 284 284 284 285 285 284 284 283 282 281 280 280 280 280 278 277 276 275
Height
5896 5896 5896 5895 5895 5895 5894 5894 5894 5894 5895 5895 5896 5896 5897 5897 5897 5898 5897 5898 5898 5898 5898 5899 5898 5899 5899 5899 5898 5898 5898 5898 5897 5897 5897 5896 5896 5896 5895 5895 5895 5895 5894
5895 5895 5894 5894 5894 5893 5893 5893 5893 5893 5893 5894 5895 5895 5895 5896 5896 5896 5897 5897 5897 5897 5897 5897 5897 5897 5897 5897 5897 5897 5897 5896 5896 5896 5895 5895 5894 5894 5893 5893 5893 5893 5893
5894 5894 5893 5893 5892 5892 5892 5891 5891 5891 5892 5892 5893 5893 5894 5894 5894 5895 5895 5896 5896 5896 5896 5896 5896 5896 5895 5895 5895 5895 5895 5895 5894 5894 5894 5893 5893 5892 5892 5891 5891 5891 5891
5893 5892 5892 5892 5891 5891 5890 5890 5890 5890 5890 5891 5891 5891 5892 5892 5893 5893 5894 5894 5894 5894 5894 5894 5894 5894 5894 5893 5893 5893 5893 5893 5892 5892 5892 5891 5891 5890 5889 5889 5889 5888 5888
5892 5891 5891 5891 5890 5889 5889 5889 5889 5889 5889 5889 5889 5889 5890 5890 5891 5891 5891 5891 5891 5891 5891 5891 5892 5891 5891 5891 5891 5891 5890 5890 5890 5889 5889 5889 5888 5888 5887 5886 5886 5886 5886
5891 5890 5890 5889 5889 5888 5888 5887 5887 5887 5887 5887 5887 5888 5888 5888 5888 5889 5889 5889 5889 5889 5889 5889 5889 5889 5889 5889 5888 5888 5888 5887 5887 5887 5887 5886 5886 5885 5885 5884 5884 5883 5883
5890 5889 5888 5888 5887 5886 5886 5885 5885 5886 5886 5886 5886 5886 5886 5885 5886 5886 5886 5886 5886 5886 5886 5886 5886 5886 5886 5886 5885 5885 5885 5884 5884 5884 5884 5883 5883 5882 5882 5881 5881 5880 5880
5889 5888 5887 5886 5884 5884 5883 5883 5883 5884 5884 5884 5884 5884 5884 5884 5883 5883 5883 5883 5883 5883 5883 5883 5883 5883 5883 5882 5882 5881 5881 5881 5881 5881 5880 5880 5880 5879 5879 5878 5878 5877 5877
5888 5887 5885 5884 5883 5882 5881 5881 5881 5881 5881 5881 5881 5881 5881 5880 5881 5881 5881 5881 5880 5880 5879 5879 5879 5879 5879 5879 5878 5878 5877 5877 5877 5877 5877 5876 5876 5876 5875 5875 5874 5874 5873
5887 5886 5884 5883 5881 5880 5880 5879 5879 5878 5879 5879 5878 5878 5878 5878 5878 5878 5877 5877 5877 5876 5876 5875 5875 5875 5874 5875 5874 5874 5874 5874 5873 5873 5873 5872 5872 5872 5871 5871 5870 5870 5869
5886 5884 5883 5881 5880 5878 5877 5877 5876 5876 5876 5876 5875 5875 5875 5875 5874 5874 5873 5873 5873 5873 5872 5872 5871 5871 5870 5870 5870 5870 5869 5869 5869 5868 5868 5868 5868 5867 5866 5866 5866 5865 5865
5884 5883 5881 5880 5878 5877 5876 5875 5874 5873 5873 5872 5872 5871 5871 5871 5871 5870 5870 5869 5869 5869 5868 5868 5867 5867 5866 5866 5865 5865 5865 5864 5864 5864 5863 5863 5863 5862 5862 5861 5861 5861 5861
5882 5881 5879 5877 5876 5874 5873 5872 5871 5870 5869 5869 5868 5867 5867 5867 5866 5866 5865 5865 5865 5865 5864 5863 5862 5862 5861 5861 5860 5860 5858 5858 5859 5859 5858 5858 5858 5858 5857 5857 5856 5856 5856
5880 5878 5877 5875 5873 5871 5870 5869 5867 5866 5865 5865 5864 5863 5863 5862 5862 5861 5860 5860 5860 5859 5858 5858 5857 5856 5856 5855 5854 5853 5852 5852 5852 5853 5852 5852 5852 5852 5852 5852 5851 5851 5851
5877 5875 5874 5872 5870 5868 5866 5865 5863 5862 5861 5860 5859 5859 5858 5857 5857 5856 5855 5854 5854 5853 5853 5852 5851 5850 5849 5848 5847 5847 5846 5846 5846 5846 5846 5846 5846 5846 5846 5846 5846 5845 5845
5873 5872 5870 5868 5866 5864 5862 5860 5859 5857 5856 5855 5854 5854 5853 5852 5851 5851 5850 5849 5848 5847 5846 5845 5844 5844 5843 5842 5842 5841 5840 5840 5840 5840 5839 5839 5839 5839 5839 5839 5839 5838 5838
5869 5867 5866 5864 5862 5860 5858 5856 5854 5852 5851 5849 5849 5848 5847 5846 5846 5845 5844 5843 5842 5840 5839 5839 5838 5837 5836 5835 5835 5834 5834 5833 5833 5832 5832 5832 5832 5832 5832 5832 5832 5831 5831
5865 5863 5861 5859 5857 5855 5853 5851 5849 5847 5846 5845 5843 5842 5841 5840 5839 5838 5837 5836 5835 5833 5832 5832 5831 5829 5829 5828 5827 5826 5826 5825 5825 5824 5824 5824 5824 5824 5824 5824 5824 5824 5823
5860 5858 5855 5854 5852 5850 5848 5846 5844 5842 5841 5839 5838 5836 5835 5833 5832 5831 5830 5828 5827 5826 5824 5824 5823 5822 5820 5820 5819 5819 5818 5817 5816 5816 5815 5815 5816 5815 5815 5815 5815 5815 5815
5854 5852 5850 5848 5846 5844 5842 5840 5838 5836 5835 5833 5832 5830 5828 5826 5825 5823 5822 5820 5819 5818 5817 5815 5814 5813 5812 5811 5810 5810 5809 5808 5807 5807 5806 5806 5806 5806 5806 5807 5807 5806 5806
5847 5845 5843 5842 5840 5838 5836 5834 5832 5830 5828 5826 5824 5823 5821 5819 5817 5816 5814 5813 5811 5810 5809 5807 5806 5805 5804 5802 5801 5801 5800 5799 5798 5798 5797 5797 5797 5797 5797 5797 5797 5797 5797
5840 5838 5837 5835 5832 5830 5828 5826 5825 5823 5821 5819 5817 5815 5814 5812 5810 5808 5806 5804 5802 5801 5800 5798 5797 5796 5795 5794 5793 5791 5791 5790 5790 5789 5788 5787 5787 5787 5786 5786 5786 5786 5786
5833 5831 5829 5827 5825 5823 5821 5819 5817 5815 5813 5811 5809 5808 5806 5804 5801 5800 5797 5796 5794 5792 5791 5789 5788 5787 5786 5785 5784 5783 5781 5780 5780 5779 5778 5778 5777 5776 5776 5776 5776 5776 5775
5825 5823 5821 5819 5817 5815 5813 5810 5808 5806 5804 5803 5801 5799 5797 5795 5793 5791 5789 5787 5785 5784 5782 5781 5779 5778 5776 5775 5774 5773 5772 5771 5770 5769 5768 5768 5767 5766 5766 5766 5765 5765 5764
5817 5815 5813 5811 5809 5807 5804 5802 5800 5798 5796 5794 5793 5790 5788 5786 5784 5782 5780 5778 5777 5775 5773 5771 5770 5768 5767 5766 5764 5763 5762 5761 5760 5759 5758 5757 5757 5756 5756 5756 5755 5754 5753
5808 5806 5805 5803 5800 5798 5796 5794 5792 5790 5788 5786 5784 5782 5779 5777 5775 5773 5771 5769 5767 5765 5763 5762 5760 5759 5757 5756 5754 5753 5752 5750 5749 5749 5748 5747 5746 5745 5746 5745 5744 5743 5743